Regional Weather Roundup
Issued by NWS

Home | Current Version | Previous Version | Graphics & Text | Print | Product List | Glossary On
Versions: 1 2 3 4 5 6 7 8 9 10 11 12 13 14 15 16 17 18 19 20 21 22 23 24 25 26 27 28 29 30 31 32 33 34 35 36 37 38 39 40 41 42 43 44 45 46 47 48 49 50
000
ASUS43 KBIS 211410
RWRND

NORTH DAKOTA REGIONAL WEATHER ROUNDUP
NATIONAL WEATHER SERVICE BISMARCK ND
900 AM CDT SUN SEP 21 2014

NOTE: "FAIR" INDICATES FEW OR NO CLOUDS BELOW 12,000 FEET WITH NO
SIGNIFICANT WEATHER AND/OR OBSTRUCTIONS TO VISIBILITY.


NDZ001>003-009>011-017-211500-
NORTHWEST NORTH DAKOTA

CITY           SKY/WX    TMP DP  RH WIND       PRES   REMARKS
WILLISTON      SUNNY     45  37  73 CALM      30.29R
MINOT          SUNNY     52  42  69 W9        30.25R
MINOT AFB      SUNNY     50  45  82 NW5       30.24R
$$

NDZ018>021-031>035-040>046-211500-
SOUTHWEST NORTH DAKOTA

CITY           SKY/WX    TMP DP  RH WIND       PRES   REMARKS
BISMARCK       SUNNY     51  42  71 W8        30.28R
DICKINSON      SUNNY     48  39  71 W7        30.29R
GARRISON         N/A     49  42  77 W5        30.26R
HETTINGER ARPT SUNNY     43  37  79 CALM      30.32R
$$

NDZ004>008-012>016-024-026-027-054-211500-
NORTHEAST NORTH DAKOTA

CITY           SKY/WX    TMP DP  RH WIND       PRES   REMARKS
GRAND FORKS    PTSUNNY   52  49  89 NW9       30.17R
GRND FRKS AFB  SUNNY     53  53  97 N9        30.19R
DEVILS LAKE    MOSUNNY   52  45  76 NW10      30.20R
$$

NDZ022-023-025-028>030-036>039-047>053-211500-
SOUTHEAST NORTH DAKOTA

CITY           SKY/WX    TMP DP  RH WIND       PRES   REMARKS
FARGO          MOSUNNY   54  49  83 NW10      30.18R
JAMESTOWN      SUNNY     53  47  79 NW8       30.22R
$$



USA.gov is the U.S. government's official web portal to all federal, state and local government web resources and services.